When you browse on this site, cookies collect data to enhance your experience and personalize the content and advertising you see.
Visit our Privacy Policy to learn more. By continuing to use the site, you agree to this use of cookies and data.
  • In Romania
  • List of Countries
  • For 7 days
  • Water Temperature
  • Weather Map
  • Weather Widgets
  • user-avatar
    Login

    Hourly Weather Porto Velho

    Today, 15 September, Sunday

    Time Temperature Precipitation Wind Pressure Humidity
    00:00 +26°C° 0 mm 0 mps 750 mmHg 71%
    01:00 +27°C° 0 mm 1 mps 749 mmHg 74%
    02:00 +26°C° 0 mm 1 mps 749 mmHg 83%
    03:00 +26°C° 0 mm 1 mps 749 mmHg 83%
    04:00 +24°C° 0 mm 0 mps 749 mmHg 84%
    05:00 +23°C° 0 mm 0 mps 749 mmHg 85%
    06:00 +25°C° 0 mm 0 mps 750 mmHg 78%
    07:00 +28°C° 0 mm 1 mps 750 mmHg 71%
    08:00 +30°C° 0 mm 1 mps 751 mmHg 65%
    09:00 +34°C° 0 mm 1 mps 751 mmHg 53%
    10:00 +39°C° 0 mm 1 mps 751 mmHg 42%
    11:00 +39°C° 0 mm 0 mps 751 mmHg 30%
    12:00 +42°C° 0 mm 1 mps 750 mmHg 30%
    13:00 +42°C° 0 mm 1 mps 749 mmHg 29%
    14:00 +41°C° 0 mm 1 mps 748 mmHg 28%
    15:00 +39°C° 0.1 mm 1 mps 747 mmHg 34%
    16:00 +37°C° 0.1 mm 2 mps 747 mmHg 40%
    17:00 +35°C° 0.1 mm 2 mps 746 mmHg 46%
    18:00 +33°C° 0 mm 1 mps 747 mmHg 48%
    19:00 +32°C° 0 mm 1 mps 748 mmHg 51%
    20:00 +31°C° 0 mm 1 mps 748 mmHg 54%
    21:00 +30°C° 0 mm 1 mps 748 mmHg 56%
    22:00 +28°C° 0 mm 0 mps 748 mmHg 58%
    23:00 +27°C° 0 mm 0 mps 748 mmHg 60%

    Tomorrow, 16 September, Monday

    Time Temperature Precipitation Wind Pressure Humidity
    00:00 +27°C° 0 mm 0 mps 748 mmHg 62%
    01:00 +26°C° 0 mm 0 mps 748 mmHg 63%
    02:00 +28°C° 0 mm 1 mps 747 mmHg 65%
    03:00 +28°C° 0 mm 1 mps 748 mmHg 66%
    04:00 +27°C° 0 mm 1 mps 748 mmHg 66%
    05:00 +27°C° 0 mm 1 mps 748 mmHg 67%
    06:00 +29°C° 0 mm 1 mps 749 mmHg 63%
    07:00 +30°C° 0 mm 1 mps 750 mmHg 58%
    08:00 +32°C° 0 mm 1 mps 750 mmHg 54%
    09:00 +35°C° 0 mm 1 mps 750 mmHg 46%
    10:00 +39°C° 0 mm 1 mps 750 mmHg 38%
    11:00 +42°C° 0 mm 2 mps 750 mmHg 30%
    12:00 +43°C° 0 mm 1 mps 749 mmHg 27%
    13:00 +44°C° 0 mm 1 mps 748 mmHg 24%
    14:00 +45°C° 0 mm 1 mps 747 mmHg 21%
    15:00 +43°C° 0 mm 1 mps 747 mmHg 24%
    16:00 +41°C° 0 mm 1 mps 746 mmHg 26%
    17:00 +39°C° 0 mm 1 mps 746 mmHg 29%
    18:00 +37°C° 0 mm 1 mps 746 mmHg 32%
    19:00 +36°C° 0 mm 1 mps 747 mmHg 35%
    20:00 +32°C° 0 mm 0 mps 747 mmHg 38%
    21:00 +31°C° 0 mm 0 mps 748 mmHg 41%
    22:00 +30°C° 0 mm 0 mps 748 mmHg 45%
    23:00 +29°C° 0 mm 0 mps 748 mmHg 48%

    Day after tomorrow, 17 September, Tuesday

    Time Temperature Precipitation Wind Pressure Humidity
    00:00 +29°C° 0 mm 0 mps 748 mmHg 51%
    01:00 +28°C° 0 mm 0 mps 748 mmHg 53%
    02:00 +28°C° 0 mm 0 mps 747 mmHg 56%
    03:00 +27°C° 0 mm 0 mps 748 mmHg 59%
    04:00 +28°C° 0 mm 1 mps 748 mmHg 61%
    05:00 +28°C° 0 mm 1 mps 748 mmHg 63%
    06:00 +29°C° 0 mm 1 mps 749 mmHg 60%
    07:00 +31°C° 0 mm 1 mps 749 mmHg 57%
    08:00 +32°C° 0 mm 1 mps 750 mmHg 53%
    09:00 +35°C° 0 mm 1 mps 750 mmHg 45%
    10:00 +40°C° 0 mm 1 mps 750 mmHg 36%
    11:00 +43°C° 0 mm 1 mps 749 mmHg 28%
    12:00 +43°C° 0 mm 1 mps 748 mmHg 25%
    13:00 +44°C° 0 mm 1 mps 747 mmHg 22%
    14:00 +44°C° 0 mm 1 mps 746 mmHg 20%
    15:00 +44°C° 0 mm 1 mps 746 mmHg 20%
    16:00 +43°C° 0 mm 1 mps 745 mmHg 20%
    17:00 +43°C° 0 mm 1 mps 745 mmHg 20%
    18:00 +40°C° 0 mm 1 mps 745 mmHg 25%
    19:00 +35°C° 0 mm 0 mps 746 mmHg 30%
    20:00 +32°C° 0 mm 0 mps 746 mmHg 34%
    21:00 +32°C° 0 mm 0 mps 746 mmHg 36%
    22:00 +31°C° 0 mm 0 mps 746 mmHg 38%
    23:00 +32°C° 0 mm 1 mps 747 mmHg 40%

    18 September, Wednesday

    Time Temperature Precipitation Wind Pressure Humidity
    00:00 +32°C° 0 mm 1 mps 746 mmHg 42%
    01:00 +31°C° 0 mm 1 mps 746 mmHg 45%
    02:00 +30°C° 0 mm 1 mps 746 mmHg 48%
    03:00 +30°C° 0 mm 1 mps 746 mmHg 50%
    04:00 +29°C° 0 mm 1 mps 747 mmHg 53%
    05:00 +29°C° 0 mm 1 mps 747 mmHg 56%
    06:00 +30°C° 0 mm 1 mps 748 mmHg 55%
    07:00 +31°C° 0 mm 1 mps 748 mmHg 54%
    08:00 +31°C° 0 mm 2 mps 749 mmHg 52%
    09:00 +35°C° 0 mm 2 mps 749 mmHg 45%
    10:00 +38°C° 0 mm 2 mps 749 mmHg 38%
    11:00 +41°C° 0 mm 2 mps 748 mmHg 31%
    12:00 +43°C° 0 mm 2 mps 747 mmHg 28%
    13:00 +44°C° 0 mm 1 mps 746 mmHg 24%
    14:00 +46°C° 0 mm 1 mps 745 mmHg 21%
    15:00 +44°C° 0 mm 1 mps 745 mmHg 23%
    16:00 +42°C° 0 mm 1 mps 744 mmHg 25%
    17:00 +41°C° 0 mm 1 mps 744 mmHg 28%
    18:00 +39°C° 0 mm 1 mps 744 mmHg 31%
    19:00 +36°C° 0 mm 1 mps 744 mmHg 35%
    20:00 +34°C° 0 mm 1 mps 745 mmHg 39%
    21:00 +34°C° 0 mm 1 mps 745 mmHg 41%
    22:00 +33°C° 0 mm 1 mps 746 mmHg 44%
    23:00 +32°C° 0 mm 1 mps 746 mmHg 46%

    19 September, Thursday

    Time Temperature Precipitation Wind Pressure Humidity
    00:00 +32°C° 0 mm 1 mps 746 mmHg 49%
    01:00 +31°C° 0 mm 1 mps 746 mmHg 51%
    02:00 +30°C° 0 mm 1 mps 746 mmHg 54%
    03:00 +30°C° 0 mm 1 mps 746 mmHg 57%
    04:00 +29°C° 0 mm 1 mps 746 mmHg 60%
    05:00 +29°C° 0 mm 1 mps 746 mmHg 63%
    06:00 +29°C° 0.2 mm 1 mps 747 mmHg 64%
    07:00 +30°C° 0.2 mm 1 mps 748 mmHg 65%
    08:00 +31°C° 0.2 mm 1 mps 748 mmHg 66%
    09:00 +35°C° 0 mm 2 mps 748 mmHg 54%
    10:00 +38°C° 0 mm 2 mps 748 mmHg 42%
    11:00 +42°C° 0 mm 2 mps 748 mmHg 30%
    12:00 +42°C° 0 mm 2 mps 747 mmHg 29%
    13:00 +42°C° 0 mm 1 mps 746 mmHg 28%
    14:00 +42°C° 0 mm 1 mps 746 mmHg 27%
    15:00 +42°C° 0 mm 1 mps 745 mmHg 27%
    16:00 +41°C° 0 mm 1 mps 745 mmHg 28%
    17:00 +41°C° 0 mm 1 mps 744 mmHg 28%
    18:00 +39°C° 0 mm 1 mps 745 mmHg 34%
    19:00 +35°C° 0 mm 1 mps 745 mmHg 40%
    20:00 +31°C° 0 mm 0 mps 745 mmHg 47%
    21:00 +30°C° 0 mm 0 mps 746 mmHg 49%
    22:00 +30°C° 0 mm 0 mps 746 mmHg 50%
    23:00 +31°C° 0 mm 1 mps 747 mmHg 52%

    20 September, Friday

    Time Temperature Precipitation Wind Pressure Humidity
    00:00 +31°C° 0 mm 1 mps 747 mmHg 53%
    01:00 +30°C° 0 mm 1 mps 747 mmHg 55%
    02:00 +28°C° 0 mm 0 mps 746 mmHg 56%
    03:00 +27°C° 0 mm 0 mps 747 mmHg 59%
    04:00 +26°C° 0 mm 0 mps 747 mmHg 63%
    05:00 +26°C° 0 mm 0 mps 747 mmHg 66%
    06:00 +27°C° 0 mm 0 mps 748 mmHg 61%
    07:00 +31°C° 0 mm 1 mps 749 mmHg 57%
    08:00 +33°C° 0 mm 1 mps 749 mmHg 52%
    09:00 +36°C° 0 mm 1 mps 749 mmHg 44%
    10:00 +40°C° 0 mm 1 mps 749 mmHg 36%
    11:00 +43°C° 0 mm 1 mps 749 mmHg 28%
    12:00 +43°C° 0 mm 1 mps 748 mmHg 27%
    13:00 +42°C° 0 mm 1 mps 747 mmHg 26%
    14:00 +42°C° 0 mm 1 mps 746 mmHg 25%
    15:00 +41°C° 0.1 mm 1 mps 746 mmHg 30%
    16:00 +39°C° 0.1 mm 1 mps 745 mmHg 34%
    17:00 +37°C° 0.1 mm 2 mps 745 mmHg 39%
    18:00 +34°C° 0.2 mm 1 mps 746 mmHg 47%
    19:00 +32°C° 0.2 mm 1 mps 746 mmHg 55%
    20:00 +30°C° 0.2 mm 1 mps 747 mmHg 63%
    21:00 +29°C° 0.1 mm 1 mps 748 mmHg 66%
    22:00 +28°C° 0.1 mm 1 mps 748 mmHg 69%
    23:00 +26°C° 0.1 mm 0 mps 749 mmHg 72%
    Show more